St. Thomas, VI

9:17 AM AST on April 25, 2017 (GMT -0400)
King

Weather History for TIST - December, 2012

Change the Weather History Date:

Tuesday, December 25, 2012

  Actual Average Record
Temperature  
Mean Temperature 79 °F 79 °F  
Max Temperature 82 °F 85 °F 92 °F (1995)
Min Temperature 75 °F 73 °F 65 °F (1991)
Degree Days  
Heating Degree Days 0 0  
Month to date heating degree days 0 0  
Since 1 July heating degree days 0 0  
Cooling Degree Days 14 14  
Month to date cooling degree days 360 366  
Year to date cooling degree days 5755 5960  
Growing Degree Days 28 (Base 50)    
Moisture  
Dew Point 71 °F    
Average Humidity 84    
Maximum Humidity 94    
Minimum Humidity 74    
Precipitation  
Precipitation 0.12 in 0.09 in 0.84 in (1959)
Month to date precipitation 1.58 2.43  
Year to date precipitation 35.11 38.81  
Sea Level Pressure  
Sea Level Pressure 29.98 in    
Wind  
Wind Speed 7 mph (East)    
Max Wind Speed 13 mph    
Max Gust Speed 16 mph    
Visibility 9 miles    
Events Rain    
T = Trace of Precipitation, MM = Missing Value Source: NWS Daily Summary

Daily Weather History Graph

Daily Weather History Graph

Search for Another Location

Airport or City:

Trip Planner

Search our weather history database for the weather conditions in past years. The results will help you decide how hot, cold, wet, or windy it might be!

Date:

Astronomy

Dec. 25, 2012 Rise Set
Actual Time 6:49 AM AST 5:51 PM AST
Civil Twilight 6:25 AM AST 6:15 PM AST
Nautical Twilight 5:58 AM AST 6:42 PM AST
Astronomical Twilight 5:31 AM AST 7:09 PM AST
Moon 3:51 PM AST 4:24 AM AST
Length of Visible Light 11h 49m
Length of Day
11h 02m
Waxing Gibbous, 93% of the Moon is Illuminated
Dec 25
Waxing Gibbous
Dec 28
Full
Jan 4
Last Quarter
Jan 11
New
Jan 18
First Quarter

Hourly Weather History & Observations

Time (AST) Temp. Heat Index Dew Point Humidity Pressure Visibility Wind Dir Wind Speed Gust Speed Precip Events Conditions
12:53 AM 75.9 °F - 69.1 °F 79% 29.97 in 10.0 mi East 8.1 mph - N/A   Clear
1:53 AM 75.9 °F - 68.0 °F 76% 29.95 in 10.0 mi East 8.1 mph - N/A   Clear
2:53 AM 75.9 °F - 69.1 °F 79% 29.94 in 10.0 mi East 5.8 mph - N/A   Clear
3:53 AM 75.9 °F - 69.1 °F 79% 29.93 in 10.0 mi East 6.9 mph - N/A   Clear
4:53 AM 75.9 °F - 70.0 °F 82% 29.93 in 10.0 mi East 6.9 mph - N/A   Clear
5:53 AM 75.9 °F - 70.0 °F 82% 29.94 in 10.0 mi East 5.8 mph - N/A   Partly Cloudy
6:53 AM 75.9 °F - 70.0 °F 82% 29.96 in 10.0 mi East 5.8 mph - N/A   Clear
7:53 AM 78.1 °F - 71.1 °F 79% 29.98 in 10.0 mi ENE 9.2 mph - N/A   Clear
8:53 AM 80.1 °F 83.8 °F 72.0 °F 76% 30.01 in 10.0 mi East 9.2 mph - N/A   Clear
10:53 AM 80.1 °F 83.8 °F 72.0 °F 76% 30.02 in 10.0 mi ENE 8.1 mph - N/A   Mostly Cloudy
11:19 AM 78.8 °F - 73.4 °F 83% 30.02 in 2.5 mi ESE 8.1 mph - 0.05 in Rain Heavy Rain
11:27 AM 75.2 °F - 73.4 °F 94% 30.01 in 1.5 mi NE 5.8 mph - 0.11 in Rain Heavy Rain
11:33 AM 75.2 °F - 73.4 °F 94% 30.01 in 3.0 mi Calm Calm - 0.11 in Rain Light Rain
11:40 AM 75.2 °F - 73.4 °F 94% 30.01 in 10.0 mi ENE 8.1 mph - 0.11 in   Overcast
11:53 AM 75.9 °F - 73.0 °F 91% 30.01 in 9.0 mi ENE 6.9 mph - 0.11 in   Overcast
12:53 PM 78.1 °F - 72.0 °F 81% 29.99 in 10.0 mi ENE 11.5 mph - N/A   Mostly Cloudy
1:53 PM 77.0 °F - 72.0 °F 84% 29.97 in 10.0 mi SE 11.5 mph - N/A   Overcast
2:53 PM 78.1 °F - 71.1 °F 79% 29.95 in 10.0 mi East 5.8 mph - 0.01 in   Overcast
3:53 PM 79.0 °F - 72.0 °F 79% 29.95 in 10.0 mi East 6.9 mph - N/A   Overcast
4:53 PM 78.1 °F - 72.0 °F 81% 29.95 in 10.0 mi ENE 4.6 mph - N/A   Overcast
5:53 PM 78.1 °F - 71.1 °F 79% 29.96 in 10.0 mi East 4.6 mph - N/A   Mostly Cloudy
6:53 PM 77.0 °F - 72.0 °F 84% 29.96 in 10.0 mi East 5.8 mph - N/A   Clear
7:53 PM 77.0 °F - 71.1 °F 82% 29.99 in 10.0 mi East 4.6 mph - N/A   Clear
8:53 PM 77.0 °F - 71.1 °F 82% 30.00 in 10.0 mi East 5.8 mph - N/A   Clear
9:53 PM 75.9 °F - 72.0 °F 87% 30.02 in 10.0 mi East 4.6 mph - N/A   Clear
10:53 PM 77.0 °F - 72.0 °F 84% 30.02 in 10.0 mi ENE 6.9 mph - N/A   Clear
11:53 PM 75.9 °F - 71.1 °F 85% 30.02 in 10.0 mi ENE 8.1 mph - N/A   Clear